Location: Nebula Knoll Observatory
(43.6666°N, 71.0000°W)
Time: 06:52:03
(UTC-04:00)

Daily predictions for brighter satellites

Satellite Brightness Start Highest point End
(mag) Time Altitude Azimuth Time Altitude Azimuth Time Altitude Azimuth
BREEZE-M DEB (TANK) 3.4 20:37:05 10° NW 20:39:21 38° NNE 20:45:20 10° E
NOSS 3-2 (C) 3.5 20:40:24 10° SSW 20:46:20 69° ESE 20:52:53 10° NE
Cosmos 2369 Rocket 2.8 20:42:12 10° S 20:47:18 36° ESE 20:52:27 10° NE
Okean 1-7 4.1 20:44:03 10° NNE 20:47:55 29° ENE 20:51:46 10° SE
Lacrosse 5 rocket 2.1 20:49:08 10° S 20:52:01 23° SE 20:54:57 10° ENE
Cosmos 1346 Rocket 2.8 20:50:54 10° N 20:54:53 76° E 20:58:52 10° SSE
Cosmos 1933 4.4 20:52:14 10° NNW 20:56:07 47° W 20:59:57 10° SSW
Cosmos 1703 Rocket 3.8 20:51:57 10° N 20:56:18 51° ENE 21:00:34 10° SSE
Cosmos 1939 Rocket 3.1 20:52:45 10° S 20:56:54 78° WSW 21:01:03 10° NNW
Cosmos 1470 Rocket 4.5 20:53:28 10° SSW 20:57:52 55° WNW 21:02:17 10° N
Envisat 3.6 20:53:52 10° S 20:58:52 60° W 21:03:55 10° NNW
Cosmos 1606 4.0 20:56:01 10° NNE 20:59:10 25° ENE 21:02:16 10° SE
Cosmos 1898 Rocket 4.4 20:56:57 10° SW 21:02:09 57° WNW 21:07:25 10° NNE
CENTAUR R/B 3.1 20:59:29 10° S 21:04:46 34° ESE 21:10:39 10° NE
Cosmos 990 Rocket 4.1 20:59:54 10° SSW 21:05:06 84° WNW 21:10:23 10° NNE
ISS -3.5 21:06:36 10° SSW 21:09:41 42° SE 21:12:48 10° ENE
SAR-Lupe-4 3.5 21:07:58 10° SSE 21:11:31 74° ENE 21:15:07 10° N
ATLAS 5 CENTAUR R/B 3.1 21:06:37 10° NNW 21:12:11 42° NE 21:17:56 11° ESE
Cosmos 1125 Rocket 4.1 21:07:40 10° SSE 21:12:25 36° ESE 21:17:10 10° NE
Terra 3.9 21:11:42 10° E 21:14:08 14° ENE 21:16:34 10° NNE
Cosmos 1869 Rocket 3.6 21:12:13 10° S 21:16:27 59° E 21:20:45 10° NNE
YAOGAN 6 3.1 21:14:00 10° S 21:17:40 61° W 21:21:21 10° NNW
MetOp-B 4.3 21:15:15 10° SSE 21:20:26 60° ENE 21:25:43 10° N
Tiangong 2 2.3 21:20:42 10° W 21:23:34 30° SSW 21:25:25 17° SSE
SPOT 5 3.6 21:19:28 13° SE 21:24:00 47° ENE 21:29:04 10° N
Aureole 3 2.6 21:22:48 10° S 21:25:50 59° E 21:28:46 10° NNE
Cosmos 2221 Rocket 3.5 21:21:49 10° N 21:26:16 76° E 21:30:26 12° SSE
Meteor 2-3 Rocket 4.2 21:22:39 10° SSW 21:28:20 65° WNW 21:33:59 10° N
GPS 2-04 Rocket1 3.8 21:26:34 10° SW 21:29:31 23° S 21:30:49 18° SSE
ARGOS 3.3 21:24:50 13° SSE 21:29:32 60° ENE 21:34:49 10° N
Cosmos 2084 3.2 21:25:50 10° NW 21:29:39 76° SW 21:32:31 18° SSE
Helios 1B rocket 3.1 21:26:43 10° N 21:30:46 58° WNW 21:34:47 10° SSW
Cosmos 1782 2.8 21:27:03 10° N 21:31:04 69° E 21:34:13 16° SSE
SAR-Lupe-1 4.3 21:29:35 11° S 21:32:57 70° WSW 21:36:32 10° NNW
Cosmos 1634 Rocket 4.2 21:26:51 10° NNW 21:33:07 74° W 21:39:25 10° S
H-2A R/B 2.6 21:32:37 17° SE 21:36:36 47° ENE 21:41:42 10° N
CZ-4B DEB 4.3 21:38:17 10° SSW 21:40:53 29° W 21:43:30 10° NW
Lacrosse 4 Rocket 2.1 21:37:22 10° NNW 21:41:43 45° NE 21:44:24 21° ESE
Cosmos 2344 3.8 21:35:41 10° S 21:42:53 46° ESE 21:50:43 10° NE
Cosmos 1408 2.5 21:42:05 11° S 21:45:35 83° E 21:49:20 10° N
Meteor 1-29 4.4 21:42:29 10° N 21:45:48 40° WNW 21:49:05 10° SW
Nadezhda 4 Rocket 4.4 21:43:21 17° SSE 21:47:45 43° E 21:53:30 10° NNE
Cosmos 1825 2.1 21:45:47 12° S 21:49:13 85° E 21:53:01 10° N
Cosmos 1862 3.5 21:48:46 23° SSE 21:50:59 49° E 21:54:49 10° NNE
Cosmos 158 Rocket 3.8 21:47:24 10° NNW 21:52:20 88° ENE 21:55:30 22° SSE
Shenzhou-11 Module 4.1 21:52:47 10° WSW 21:54:43 15° SSW 21:55:05 15° SSW
YAOGAN 11 4.1 21:52:45 21° SSE 21:55:46 84° ENE 22:00:18 10° NNW
H-2A R/B 3.6 22:00:01 18° E 22:01:22 21° ENE 22:04:29 10° NNE
ERS-1 Rocket 4.1 22:03:27 10° SSW 22:08:11 40° W 22:12:56 10° NNW
Cosmos 2279 Rocket 4.3 22:01:58 10° NNW 22:08:11 67° W 22:13:33 14° S
COSMOS 2455 3.7 22:02:20 10° SW 22:08:12 54° NW 22:14:07 10° NNE
Cosmos 1048 Rocket 4.3 22:07:24 10° NNW 22:12:40 64° WSW 22:15:53 23° S
Cosmos 1943 Rocket 2.2 22:07:37 10° SSW 22:13:13 82° WNW 22:18:48 10° NNE
Okean 3 4.2 22:14:12 10° N 22:18:05 36° ENE 22:19:00 32° ESE
Cosmos 1908 Rocket 4.2 22:21:26 34° ESE 22:22:12 37° E 22:26:19 10° NNE
DMSP B5D2-2 4.0 22:17:06 10° NNE 22:22:18 67° ESE 22:25:06 28° S
IGS 5A 3.7 22:21:57 39° ESE 22:23:07 53° ENE 22:27:11 10° N
USA 215 3.7 22:19:36 25° SSE 22:23:21 51° SW 22:29:44 10° WNW
Cosmos 1340 3.6 22:20:33 10° NNW 22:24:09 42° W 22:25:58 24° SSW
Milstar 3 4.0 22:18:43 10° SW 22:26:25 26° S 22:27:31 25° SSE
Cosmos 405 Rocket 4.2 22:27:41 10° NNE 22:30:36 21° ENE 22:30:40 21° ENE
Lacrosse 5 rocket 2.4 22:27:35 10° WSW 22:31:00 40° NW 22:34:32 10° NE
Cosmos 2369 Rocket 3.7 22:26:06 10° WSW 22:31:17 37° NW 22:36:33 10° N
Cosmos 2251 Rocket 3.8 22:26:43 10° NNW 22:31:52 53° ENE 22:33:44 35° ESE
Cosmos 1833 4.4 22:27:51 10° NNW 22:33:37 67° WSW 22:36:20 31° S
SPOT 1/Viking Rocket 4.0 22:31:51 25° S 22:34:46 56° W 22:39:55 10° NNW
Landsat 7 3.9 22:34:09 35° S 22:36:07 75° WSW 22:40:54 10° NNW
Intercosmos 25 Rocket 4.5 22:31:48 10° N 22:39:40 74° W 22:42:06 32° S
GEOS 3 Rocket 3.5 22:38:07 39° SSE 22:40:06 84° SW 22:45:23 10° NW
deb Chang Zheng 4 4.2 22:36:02 10° NNE 22:40:12 38° E 22:40:20 38° ESE
ISS -2.1 22:43:13 10° W 22:46:13 33° NNW 22:49:15 10° NE
BREEZE-M DEB (TANK) 3.8 22:47:17 38° SE 22:47:35 38° SE 22:58:05 10° ENE
Cosmos 1733 Rocket 3.8 22:45:53 23° SW 22:48:15 48° WNW 22:52:28 10° N
Cosmos 2297 Rocket 4.0 22:44:12 10° N 22:48:31 22° NE 22:51:27 15° E
Cosmos 1782 Rocket 4.1 22:49:18 41° E 22:49:23 41° E 22:53:32 10° NNE
Sich 1 Rocket 3.5 22:50:27 57° SSE 22:51:11 70° E 22:55:36 10° NNE
Terra 1.8 22:49:48 45° S 22:51:16 75° WSW 22:56:03 10° NNW
ARGOS Delta rocket 4.2 22:47:55 10° NNE 22:52:08 39° E 22:52:08 39° E
CENTAUR R/B 3.4 22:49:07 10° WSW 22:55:06 51° NW 23:01:57 10° NNE
ATLAS 5 CENTAUR R/B 3.1 22:51:18 10° NW 22:57:00 43° WSW 22:59:28 31° SSW
Cosmos 1437 3.3 22:54:33 10° NNW 22:57:24 54° WNW 22:57:24 54° WNW
Cosmos 2026 Rocket 3.9 23:04:33 43° SSE 23:06:39 74° E 23:12:54 10° NNE
Meteor 2-20 Rocket 4.5 23:04:52 34° SSW 23:07:46 80° W 23:13:55 10° N
Cosmos 1975 Rocket 3.0 23:06:01 10° N 23:10:28 69° E 23:10:46 66° ESE
Cosmos 1867 3.6 23:06:21 10° NW 23:11:48 71° WSW 23:12:56 54° S
ALOS 2 4.2 23:11:52 22° ENE 23:12:19 22° ENE 23:15:42 10° NNE
Meteor 1-20 Rocket 4.3 23:12:32 51° SSE 23:13:46 65° E 23:19:25 10° NNE
Cosmos 1656 Rocket 4.1 23:10:03 18° SW 23:14:00 59° WNW 23:19:29 10° NNE
H-2A R/B 3.9 23:13:15 16° SW 23:16:12 25° W 23:20:32 10° NW
Meteor 1-25 Rocket 4.2 23:15:22 51° S 23:16:51 76° E 23:22:42 10° NNE
Cosmos 1417 Rocket 4.5 23:12:53 10° N 23:19:10 75° E 23:20:55 49° SSE
Lacrosse 4 Rocket 3.3 23:16:49 10° WNW 23:20:07 20° WSW 23:20:44 20° WSW
CZ-2C R/B 3.7 23:19:37 37° E 23:20:27 40° ENE 23:25:04 10° N
Spot 4 3.8 23:22:13 62° SSW 23:22:55 74° WSW 23:27:46 10° NNW
CZ-4 R/B 3.8 23:18:26 10° N 23:23:06 77° WNW 23:23:54 60° SW
Cosmos 1428 Rocket 4.5 23:23:31 50° SSE 23:25:12 73° E 23:31:31 10° NNE
Cosmos 1378 Rocket 4.3 23:21:12 10° NNW 23:25:26 44° W 23:26:03 41° WSW
S3M 4.0 23:19:44 10° N 23:25:50 65° E 23:27:16 50° SE
Meteor 1-14 Rocket 4.5 23:26:51 39° SSW 23:29:06 68° WNW 23:34:55 10° N
Meteor 2-11 Rocket 4.3 23:23:43 10° N 23:29:54 84° E 23:31:23 55° SSE
ATLAS CENTAUR R/B 1.7 23:33:00 56° NNE 23:33:00 56° NNE 23:36:05 10° NNE
Cosmos 1536 Rocket 4.5 23:29:54 10° N 23:33:48 37° ENE 23:33:48 37° ENE
H-2A R/B 3.0 23:37:08 34° W 23:37:11 34° W 23:40:58 10° NNW
Cosmos 2227 Rocket 2.5 23:32:45 10° NNW 23:38:19 56° ENE 23:39:30 47° ESE
CZ-2C R/B 2.9 23:36:45 10° NNE 23:41:45 50° E 23:41:45 50° E
Cosmos 2219 3.6 23:37:08 10° NW 23:42:41 50° WSW 23:43:36 46° SW
Cosmos 1553 Rocket 3.9 23:38:27 10° N 23:44:52 85° W 23:46:20 56° S
CZ-4B R/B 3.7 23:40:14 10° N 23:45:11 64° WNW 23:46:05 53° WSW
Cosmos 1812 4.0 23:42:53 10° NNW 23:46:07 34° W 23:46:07 34° W
APEX 3.7 23:42:05 10° NNW 23:46:09 61° NNE 23:46:09 61° NNE
Gbstr 26 Del rocket 3.4 23:44:43 10° NW 23:48:42 53° NNE 23:48:42 53° NNE
Meteor 1-11 Rocket 4.1 23:48:53 48° ESE 23:49:26 50° E 23:55:11 10° NNE
Cosmos 1656 4.5 23:52:09 35° E 23:52:09 35° E 23:56:30 10° NE
CZ-4C R/B 4.1 23:53:17 47° W 23:53:17 47° W 23:57:05 10° NNW
